Chicopee, MA

10:19 PM EST on February 21, 2017 (GMT -0500)
Westover Air Reserve Base / Metropolitan Airport

Weather History for KCEF - March, 2012

Change the Weather History Date:

Wednesday, March 21, 2012

  Actual Average Record
Temperature  
Mean Temperature 62 °F -  
Max Temperature 75 °F 44 °F 75 °F (2012)
Min Temperature 48 °F 27 °F 14 °F (2007)
Degree Days  
Heating Degree Days 4    
Growing Degree Days 12 (Base 50)    
Moisture  
Dew Point 54 °F    
Average Humidity 94    
Maximum Humidity 100    
Minimum Humidity 50    
Precipitation  
Precipitation 0.00 in - - ()
Sea Level Pressure  
Sea Level Pressure 30.32 in    
Wind  
Wind Speed 3 mph (SSW)    
Max Wind Speed 15 mph    
Max Gust Speed -    
Visibility 3 miles    
Events Fog    
Averages and records for this station are not official NWS values.
T = Trace of Precipitation, MM = Missing Value Source: NWS Daily Summary

Daily Weather History Graph

Daily Weather History Graph

Search for Another Location

Airport or City:

Trip Planner

Search our weather history database for the weather conditions in past years. The results will help you decide how hot, cold, wet, or windy it might be!

Date:

Astronomy

Mar. 21, 2012 Rise Set
Actual Time 6:50 AM EDT 7:04 PM EDT
Civil Twilight 6:22 AM EDT 7:32 PM EDT
Nautical Twilight 5:50 AM EDT 8:04 PM EDT
Astronomical Twilight 5:16 AM EDT 8:38 PM EDT
Moon 6:00 AM EDT (3/21) 6:28 PM EDT (3/21)
Length of Visible Light 13h 09m
Length of Day
12h 13m
Waning Crescent, 1% of the Moon is Illuminated
Mar 21
Waning Crescent
Mar 22
New
Mar 30
First Quarter
Apr 6
Full
Apr 13
Last Quarter

Hourly Weather History & Observations

Time (EDT) Temp. Dew Point Humidity Pressure Visibility Wind Dir Wind Speed Gust Speed Precip Events Conditions
12:55 AM 57.7 °F 55.8 °F 93% 30.32 in 10.0 mi South 6.9 mph - N/A   Clear
1:55 AM 55.9 °F 55.4 °F 98% 30.32 in 10.0 mi SSE 4.6 mph - N/A   Clear
2:55 AM 54.0 °F 53.4 °F 98% 30.31 in 5.0 mi South 4.6 mph - N/A   Clear
2:59 AM 53.6 °F 53.6 °F 100% 30.31 in 2.5 mi SSE 4.6 mph - N/A   Clear
3:04 AM 53.6 °F 53.6 °F 100% 30.31 in 2.0 mi SSE 4.6 mph - N/A   Clear
3:13 AM 53.6 °F 51.8 °F 94% 30.31 in 1.8 mi SSE 4.6 mph - N/A   Clear
3:16 AM 51.8 °F 51.8 °F 100% 30.31 in 1.5 mi SSE 3.5 mph - N/A   Clear
3:17 AM 51.8 °F 51.8 °F 100% 30.31 in 1.2 mi SSE 3.5 mph - N/A   Clear
3:18 AM 51.8 °F 51.8 °F 100% 30.31 in 1.0 mi SSE 3.5 mph - N/A   Clear
3:20 AM 51.8 °F 50.0 °F 94% 30.31 in 0.8 mi Calm Calm - N/A   Clear
3:23 AM 50.0 °F 50.0 °F 100% 30.31 in 0.8 mi Calm Calm - N/A   Clear
3:24 AM 50.0 °F 50.0 °F 100% 30.31 in 0.8 mi Calm Calm - N/A   Clear
3:29 AM 50.0 °F 50.0 °F 100% 30.31 in 0.8 mi Calm Calm - N/A   Mist
3:30 AM 50.0 °F 50.0 °F 100% 30.31 in 0.8 mi Calm Calm - N/A   Mist
3:32 AM 50.0 °F 48.2 °F 94% 30.31 in 0.5 mi Calm Calm - N/A Fog Fog
3:38 AM 50.0 °F 48.2 °F 94% 30.31 in 0.2 mi Calm Calm - N/A Fog Fog
3:39 AM 50.0 °F 48.2 °F 94% 30.31 in 0.2 mi Calm Calm - N/A Fog Fog
3:40 AM 50.0 °F 48.2 °F 94% 30.31 in 0.2 mi Calm Calm - N/A Fog Fog
3:41 AM 50.0 °F 48.2 °F 94% 30.31 in 0.2 mi Calm Calm - N/A Fog Fog
3:52 AM 48.2 °F 48.2 °F 100% 30.31 in 0.2 mi Calm Calm - N/A Fog Fog
3:55 AM 48.6 °F 48.0 °F 98% 30.31 in 0.2 mi Calm Calm - N/A Fog Fog
3:57 AM 48.2 °F 48.2 °F 100% 30.31 in 0.2 mi Calm Calm - N/A Fog Fog
3:58 AM 48.2 °F 48.2 °F 100% 30.31 in 0.2 mi Calm Calm - N/A Fog Fog
4:06 AM 50.0 °F 50.0 °F 100% 30.31 in 0.5 mi Calm Calm - N/A Fog Fog
4:07 AM 50.0 °F 50.0 °F 100% 30.31 in 0.5 mi Calm Calm - N/A Fog Fog
4:08 AM 50.0 °F 50.0 °F 100% 30.31 in 0.5 mi Calm Calm - N/A Fog Fog
4:14 AM 51.8 °F 51.8 °F 100% 30.31 in 0.8 mi Calm Calm - N/A   Mist
4:17 AM 51.8 °F 51.8 °F 100% 30.31 in 1.0 mi Calm Calm - N/A   Mist
4:20 AM 51.8 °F 51.8 °F 100% 30.31 in 1.0 mi Calm Calm - N/A   Mist
4:22 AM 51.8 °F 51.8 °F 100% 30.31 in 1.2 mi Calm Calm - N/A   Overcast
4:24 AM 51.8 °F 51.8 °F 100% 30.31 in 1.2 mi Calm Calm - N/A   Overcast
4:29 AM 51.8 °F 51.8 °F 100% 30.31 in 1.2 mi Calm Calm - N/A   Overcast
4:30 AM 51.8 °F 51.8 °F 100% 30.31 in 1.5 mi Calm Calm - N/A   Overcast
4:32 AM 51.8 °F 51.8 °F 100% 30.31 in 1.8 mi Calm Calm - N/A   Overcast
4:33 AM 51.8 °F 51.8 °F 100% 30.31 in 1.5 mi Calm Calm - N/A   Overcast
4:35 AM 53.6 °F 51.8 °F 94% 30.31 in 1.2 mi Calm Calm - N/A   Overcast
4:37 AM 53.6 °F 51.8 °F 94% 30.31 in 1.0 mi Calm Calm - N/A   Mist
4:39 AM 53.6 °F 51.8 °F 94% 30.31 in 0.8 mi Calm Calm - N/A   Mist
4:41 AM 53.6 °F 51.8 °F 94% 30.31 in 0.5 mi Calm Calm - N/A Fog Fog
4:42 AM 53.6 °F 51.8 °F 94% 30.31 in 0.5 mi Calm Calm - N/A Fog Fog
4:43 AM 53.6 °F 53.6 °F 100% 30.31 in 0.5 mi Calm Calm - N/A Fog Fog
4:46 AM 53.6 °F 53.6 °F 100% 30.31 in 0.5 mi Calm Calm - N/A Fog Fog
4:52 AM 53.6 °F 53.6 °F 100% 30.31 in 0.2 mi SSW 3.5 mph - N/A Fog Fog
4:53 AM 53.6 °F 53.6 °F 100% 30.31 in 0.2 mi SSW 3.5 mph - N/A Fog Fog
4:55 AM 54.5 °F 54.0 °F 98% 30.31 in 0.2 mi SSW 3.5 mph - N/A Fog Fog
4:58 AM 55.4 °F 55.4 °F 100% 30.32 in 0.2 mi SW 3.5 mph - N/A Fog Fog
4:59 AM 55.4 °F 55.4 °F 100% 30.32 in 0.2 mi SW 3.5 mph - N/A Fog Fog
5:39 AM 55.4 °F 55.4 °F 100% 30.32 in 0.2 mi Calm Calm - N/A Fog Fog
5:50 AM 55.4 °F 55.4 °F 100% 30.32 in 0.2 mi South 4.6 mph - N/A Fog Fog
5:55 AM 55.2 °F 54.9 °F 99% 30.32 in 0.2 mi South 4.6 mph - N/A Fog Fog
6:25 AM 55.4 °F 55.4 °F 100% 30.33 in 0.2 mi SSW 5.8 mph - N/A Fog Fog
6:32 AM 55.4 °F 55.4 °F 100% 30.33 in 0.2 mi South 5.8 mph - N/A Fog Fog
6:44 AM 55.4 °F 55.4 °F 100% 30.33 in 0.2 mi SSW 3.5 mph - N/A Fog Fog
6:47 AM 55.4 °F 55.4 °F 100% 30.33 in 0.2 mi South 4.6 mph - N/A Fog Fog
6:48 AM 55.4 °F 55.4 °F 100% 30.33 in 0.2 mi South 4.6 mph - N/A Fog Fog
6:55 AM 54.7 °F 54.3 °F 99% 30.33 in 0.2 mi SSW 4.6 mph - N/A Fog Fog
7:04 AM 55.4 °F 53.6 °F 94% 30.34 in 0.2 mi SSW 4.6 mph - N/A Fog Fog
7:09 AM 55.4 °F 55.4 °F 100% 30.34 in 0.2 mi SSW 3.5 mph - N/A Fog Fog
7:11 AM 55.4 °F 55.4 °F 100% 30.34 in 0.2 mi SSW 3.5 mph - N/A Fog Fog
7:39 AM 55.4 °F 55.4 °F 100% 30.35 in 0.2 mi South 4.6 mph - N/A Fog Fog
7:42 AM 55.4 °F 55.4 °F 100% 30.35 in 0.2 mi South 3.5 mph - N/A Fog Fog
7:46 AM 55.4 °F 55.4 °F 100% 30.35 in 0.2 mi South 3.5 mph - N/A Fog Fog
7:51 AM 55.4 °F 55.4 °F 100% 30.35 in 0.5 mi SSW 3.5 mph - N/A Fog Fog
7:52 AM 55.4 °F 55.4 °F 100% 30.35 in 0.5 mi Calm Calm - N/A Fog Fog
7:55 AM 55.6 °F 55.2 °F 99% 30.35 in 0.5 mi Calm Calm - N/A Fog Fog
7:56 AM 55.4 °F 55.4 °F 100% 30.35 in 0.5 mi SW 3.5 mph - N/A Fog Fog
7:57 AM 55.4 °F 55.4 °F 100% 30.35 in 0.5 mi SSW 3.5 mph - N/A Fog Fog
7:58 AM 55.4 °F 55.4 °F 100% 30.35 in 0.5 mi SSW 3.5 mph - N/A Fog Fog
7:59 AM 55.4 °F 55.4 °F 100% 30.35 in 0.8 mi SSW 3.5 mph - N/A   Mist
8:02 AM 55.4 °F 55.4 °F 100% 30.35 in 1.0 mi South 3.5 mph - N/A   Mist
8:03 AM 55.4 °F 55.4 °F 100% 30.35 in 1.2 mi SSW 3.5 mph - N/A   Overcast
8:04 AM 55.4 °F 55.4 °F 100% 30.35 in 1.5 mi SSW 3.5 mph - N/A   Overcast
8:05 AM 55.4 °F 55.4 °F 100% 30.35 in 1.8 mi Calm Calm - N/A   Overcast
8:06 AM 55.4 °F 55.4 °F 100% 30.35 in 2.0 mi SSW 3.5 mph - N/A   Overcast
8:07 AM 55.4 °F 55.4 °F 100% 30.35 in 2.5 mi SSW 3.5 mph - N/A   Overcast
8:08 AM 55.4 °F 55.4 °F 100% 30.35 in 1.2 mi SSW 3.5 mph - N/A   Overcast
8:28 AM 55.4 °F 55.4 °F 100% 30.36 in 1.5 mi Calm Calm - N/A   Overcast
8:30 AM 55.4 °F 55.4 °F 100% 30.36 in 1.8 mi Calm Calm - N/A   Overcast
8:41 AM 57.2 °F 55.4 °F 94% 30.37 in 2.5 mi Calm Calm - N/A   Overcast
8:47 AM 57.2 °F 55.4 °F 94% 30.37 in 3.0 mi West 3.5 mph - N/A   Overcast
8:55 AM 57.2 °F 55.4 °F 94% 30.36 in 4.0 mi West 3.5 mph - N/A   Overcast
9:55 AM 57.2 °F 57.2 °F 100% 30.37 in 6.0 mi SW 6.9 mph - N/A   Overcast
10:29 AM 59.0 °F 59.0 °F 100% 30.37 in 7.0 mi SW 9.2 mph - N/A   Overcast
10:51 AM 60.8 °F 57.2 °F 88% 30.37 in 7.0 mi SSW 10.4 mph - N/A   Mostly Cloudy
10:55 AM 60.8 °F 57.2 °F 88% 30.37 in 8.0 mi SW 9.2 mph - N/A   Mostly Cloudy
11:09 AM 62.6 °F 57.2 °F 82% 30.37 in 9.0 mi South 4.6 mph - N/A   Mostly Cloudy
11:23 AM 64.4 °F 57.2 °F 77% 30.36 in 10.0 mi SW 5.8 mph - N/A   Scattered Clouds
11:55 AM 68.0 °F 57.2 °F 68% 30.35 in 10.0 mi South 9.2 mph - N/A   Scattered Clouds
12:55 PM 71.6 °F 57.2 °F 60% 30.33 in 10.0 mi SSW 8.1 mph - N/A   Partly Cloudy
1:55 PM 73.9 °F 57.7 °F 57% 30.30 in 10.0 mi SSW 11.5 mph - N/A   Partly Cloudy
2:55 PM 74.8 °F 57.7 °F 55% 30.28 in 10.0 mi South 12.7 mph - N/A   Partly Cloudy
3:55 PM 75.2 °F 57.2 °F 53% 30.26 in 10.0 mi South 15.0 mph - N/A   Partly Cloudy
4:55 PM 75.2 °F 55.4 °F 50% 30.25 in 10.0 mi SSW 11.5 mph - N/A   Partly Cloudy
5:55 PM 73.4 °F 55.4 °F 53% 30.24 in 10.0 mi SSW 12.7 mph - N/A   Partly Cloudy
6:55 PM 70.2 °F 54.7 °F 58% 30.25 in 10.0 mi SSW 10.4 mph - N/A   Clear
7:55 PM 66.2 °F 54.5 °F 66% 30.25 in 10.0 mi SSW 8.1 mph - N/A   Clear
8:55 PM 65.1 °F 57.0 °F 75% 30.27 in 10.0 mi South 10.4 mph - N/A   Clear
9:55 PM 62.4 °F 57.4 °F 84% 30.27 in 10.0 mi South 8.1 mph - N/A   Clear
10:55 PM 60.4 °F 57.4 °F 90% 30.27 in 10.0 mi South 5.8 mph - N/A   Clear
11:55 PM 59.0 °F 57.4 °F 94% 30.26 in 10.0 mi South 6.9 mph - N/A   Clear